| time (UTC) | temp C | wind direction | speed KPH | gust KPH | rain 1hr cm | rain 24hr cm | rain mn cm | humidity % | barometer mb |
| 20260505124121 | 13 | 203 | 11.3 | 20.9 | 0.00 | 1.04 | 1.04 | 87 | 1007.4 |
| 20260505123220 | 13 | 158 | 8.0 | 4.8 | 0.00 | 1.04 | 1.04 | 87 | 1007.2 |
| 20260505122322 | 13 | 178 | 3.2 | 4.8 | 0.00 | 1.04 | 1.04 | 87 | 1007.2 |
| 20260505121422 | 13 | 181 | 4.8 | 11.3 | 0.00 | 1.04 | 1.04 | 88 | 1007.0 |
| 20260505120521 | 12 | 170 | 8.0 | 9.7 | 0.00 | 1.04 | 1.04 | 89 | 1007.1 |
| 20260505115620 | 12 | 149 | 4.8 | 8.0 | 0.00 | 1.04 | 1.04 | 89 | 1007.2 |
| 20260505114721 | 12 | 150 | 1.6 | 4.8 | 0.00 | 1.04 | 1.04 | 89 | 1007.2 |
| 20260505113820 | 12 | 213 | 3.2 | 4.8 | 0.00 | 1.04 | 1.04 | 89 | 1007.3 |
| 20260505112920 | 12 | 200 | 3.2 | 4.8 | 0.00 | 1.04 | 1.04 | 88 | 1007.2 |
| 20260505112026 | 12 | 172 | 3.2 | 4.8 | 0.00 | 1.04 | 1.04 | 88 | 1007.1 |
| 20260505111124 | 12 | 228 | 1.6 | 4.8 | 0.00 | 1.04 | 1.04 | 88 | 1007.0 |
| 20260505110223 | 12 | 139 | 3.2 | 9.7 | 0.00 | 1.04 | 1.04 | 88 | 1006.6 |
| 20260505100857 | 12 | 141 | 11.3 | 19.3 | 0.05 | 1.04 | 1.04 | 90 | 1005.4 |
| 20260505100821 | 12 | 141 | 11.3 | 19.3 | 0.05 | 1.04 | 1.04 | 90 | 1005.4 |
| 20260505095924 | 12 | 151 | 12.9 | 19.3 | 0.05 | 1.04 | 1.04 | 90 | 1005.7 |
| 20260505095021 | 12 | 118 | 12.9 | 20.9 | 0.03 | 1.02 | 1.02 | 90 | 1005.2 |
| 20260505094122 | 12 | 121 | 11.3 | 19.3 | 0.05 | 1.02 | 1.02 | 90 | 1006.1 |
| 20260505093222 | 12 | 139 | 9.7 | 11.3 | 0.10 | 1.02 | 1.02 | 90 | 1006.4 |
| 20260505085621 | 12 | 160 | 4.8 | 4.8 | 0.48 | 0.99 | 0.99 | 90 | 1007.9 |
| 20260505084722 | 12 | 252 | 1.6 | 4.8 | 0.53 | 0.97 | 0.97 | 90 | 1008.1 |
| 20260505083821 | 12 | 282 | 4.8 | 4.8 | 0.56 | 0.94 | 0.94 | 90 | 1008.2 |
| 20260505082921 | 12 | 286 | 4.8 | 9.7 | 0.61 | 0.89 | 0.89 | 90 | 1008.1 |
| 20260505082021 | 12 | 296 | 3.2 | 4.8 | 0.53 | 0.76 | 0.76 | 90 | 1007.9 |
| 20260505081121 | 12 | 296 | 1.6 | 3.2 | 0.48 | 0.66 | 0.66 | 90 | 1007.4 |
| 20260505080221 | 12 | 291 | 1.6 | 3.2 | 0.43 | 0.56 | 0.56 | 89 | 1007.3 |
| 20260505075321 | 12 | 311 | 1.6 | 3.2 | 0.36 | 0.46 | 0.46 | 89 | 1007.4 |
| 20260505074421 | 12 | 303 | 4.8 | 4.8 | 0.36 | 0.41 | 0.41 | 89 | 1007.4 |
| 20260505073521 | 12 | 303 | 1.6 | 1.6 | 0.36 | 0.36 | 0.36 | 88 | 1007.0 |
| 20260505072620 | 12 | 302 | 0.0 | 0.0 | 0.28 | 0.28 | 0.28 | 88 | 1006.8 |
| 20260505071722 | 13 | 302 | 4.8 | 8.0 | 0.20 | 0.20 | 0.20 | 87 | 1007.5 |
| 20260505065920 | 13 | 301 | 11.3 | 12.9 | 0.13 | 0.13 | 0.13 | 86 | 1007.6 |
| 20260505065021 | 13 | 304 | 11.3 | 12.9 | 0.10 | 0.10 | 0.10 | 84 | 1007.6 |
| 20260505064122 | 15 | 303 | 14.5 | 19.3 | 0.03 | 0.03 | 0.03 | 79 | 1007.7 |
| 20260505063220 | 17 | 303 | 22.5 | 32.2 | 0.00 | 0.00 | 0.00 | 73 | 1007.8 |
| 20260505062632 | 18 | 282 | 25.7 | 35.4 | 0.00 | 0.00 | 0.00 | 63 | 1007.0 |
| 20260505062320 | 18 | 282 | 25.7 | 35.4 | 0.00 | 0.00 | 0.00 | 63 | 1007.0 |
| 20260505061422 | 18 | 275 | 9.7 | 12.9 | 0.00 | 0.00 | 0.00 | 61 | 1006.5 |
| 20260505060520 | 18 | 261 | 8.0 | 11.3 | 0.00 | 0.00 | 0.00 | 59 | 1005.8 |
| 20260505055620 | 18 | 232 | 9.7 | 19.3 | 0.00 | 0.00 | 0.00 | 59 | 1005.5 |
| 20260505054722 | 18 | 236 | 14.5 | 22.5 | 0.00 | 0.00 | 0.00 | 58 | 1005.4 |
| 20260505053822 | 19 | 215 | 11.3 | 19.3 | 0.00 | 0.00 | 0.00 | 58 | 1005.1 |
| 20260505052958 | 19 | 205 | 11.3 | 16.1 | 0.00 | 0.00 | 0.00 | 57 | 1004.9 |
| 20260505052021 | 19 | 235 | 11.3 | 19.3 | 0.00 | 0.00 | 0.00 | 56 | 1004.8 |
| 20260505051122 | 20 | 196 | 14.5 | 22.5 | 0.00 | 0.00 | 0.00 | 55 | 1004.4 |
| 20260505050220 | 20 | 197 | 12.9 | 20.9 | 0.00 | 0.00 | 0.00 | 56 | 1004.4 |
| 20260505041721 | 20 | 183 | 12.9 | 20.9 | 0.00 | 0.00 | 0.00 | 57 | 1004.4 |
| 20260505040820 | 19 | 214 | 12.9 | 19.3 | 0.00 | 0.00 | 0.00 | 58 | 1004.5 |
| 20260505035920 | 19 | 165 | 12.9 | 16.1 | 0.00 | 0.00 | 0.00 | 59 | 1004.5 |
| 20260505035021 | 19 | 178 | 11.3 | 16.1 | 0.00 | 0.00 | 0.00 | 59 | 1004.8 |
| 20260505034122 | 19 | 183 | 9.7 | 19.3 | 0.00 | 0.00 | 0.00 | 59 | 1005.0 |
| 20260505033220 | 19 | 164 | 8.0 | 11.3 | 0.00 | 0.00 | 0.00 | 59 | 1005.0 |
| 20260505032321 | 19 | 164 | 8.0 | 8.0 | 0.00 | 0.00 | 0.00 | 59 | 1005.0 |
| 20260505031422 | 19 | 163 | 11.3 | 11.3 | 0.00 | 0.00 | 0.00 | 58 | 1005.0 |
| 20260505030521 | 19 | 152 | 8.0 | 16.1 | 0.00 | 0.00 | 0.00 | 59 | 1005.2 |
| 20260505025621 | 19 | 153 | 4.8 | 9.7 | 0.00 | 0.00 | 0.00 | 59 | 1005.2 |
| 20260505024721 | 19 | 176 | 4.8 | 8.0 | 0.00 | 0.00 | 0.00 | 59 | 1005.2 |
| 20260505023820 | 19 | 152 | 4.8 | 4.8 | 0.00 | 0.00 | 0.00 | 59 | 1005.2 |
| 20260505022925 | 19 | 177 | 8.0 | 9.7 | 0.00 | 0.00 | 0.00 | 58 | 1005.1 |
| 20260505022023 | 19 | 150 | 8.0 | 11.3 | 0.00 | 0.00 | 0.00 | 58 | 1005.0 |
| 20260505021120 | 19 | 175 | 8.0 | 9.7 | 0.00 | 0.00 | 0.00 | 58 | 1005.0 |
| 20260505020722 | 20 | 151 | 4.8 | 8.0 | 0.00 | 0.00 | 0.00 | 58 | 1004.8 |
| 20260505020221 | 20 | 151 | 4.8 | 8.0 | 0.00 | 0.00 | 0.00 | 58 | 1004.8 |
| 20260505015321 | 20 | 154 | 4.8 | 8.0 | 0.00 | 0.00 | 0.00 | 58 | 1004.6 |
| 20260505014421 | 20 | 138 | 4.8 | 9.7 | 0.00 | 0.00 | 0.00 | 58 | 1004.5 |
| 20260505013521 | 20 | 141 | 3.2 | 4.8 | 0.00 | 0.00 | 0.00 | 57 | 1004.4 |
| 20260505012621 | 20 | 149 | 4.8 | 4.8 | 0.00 | 0.00 | 0.00 | 56 | 1004.4 |
| 20260505011721 | 20 | 157 | 8.0 | 11.3 | 0.00 | 0.00 | 0.00 | 56 | 1004.4 |
| 20260505010821 | 20 | 138 | 8.0 | 11.3 | 0.00 | 0.00 | 0.00 | 55 | 1004.3 |
| 20260505005920 | 20 | 207 | 9.7 | 20.9 | 0.00 | 0.00 | 0.00 | 55 | 1004.1 |
| 20260505005023 | 21 | 178 | 8.0 | 12.9 | 0.00 | 0.00 | 0.00 | 55 | 1004.1 |
| 20260505004120 | 21 | 186 | 8.0 | 11.3 | 0.00 | 0.00 | 0.00 | 54 | 1004.1 |
| 20260505002320 | 22 | 200 | 14.5 | 16.1 | 0.00 | 0.00 | 0.00 | 51 | 1004.0 |
| 20260505001421 | 22 | 181 | 11.3 | 16.1 | 0.00 | 0.00 | 0.00 | 51 | 1004.0 |
| 20260505000521 | 22 | 170 | 11.3 | 14.5 | 0.00 | 0.00 | 0.00 | 51 | 1004.2 |
| 20260504235621 | 22 | 224 | 12.9 | 22.5 | 0.00 | 0.00 | 0.00 | 50 | 1004.3 |
| 20260504234722 | 22 | 209 | 9.7 | 8.0 | 0.00 | 0.00 | 0.00 | 50 | 1004.3 |
| 20260504233820 | 22 | 207 | 9.7 | 16.1 | 0.00 | 0.00 | 0.00 | 50 | 1004.4 |
| 20260504232924 | 22 | 170 | 9.7 | 14.5 | 0.00 | 0.00 | 0.00 | 52 | 1004.6 |
| 20260504232023 | 21 | 179 | 9.7 | 19.3 | 0.00 | 0.00 | 0.00 | 55 | 1004.7 |
| 20260504231122 | 21 | 161 | 8.0 | 11.3 | 0.00 | 0.00 | 0.00 | 55 | 1004.9 |
| 20260504230221 | 21 | 190 | 9.7 | 14.5 | 0.00 | 0.00 | 0.00 | 54 | 1005.2 |
| 20260504225321 | 21 | 193 | 9.7 | 12.9 | 0.00 | 0.00 | 0.00 | 55 | 1005.1 |
| 20260504224422 | 21 | 166 | 12.9 | 19.3 | 0.00 | 0.00 | 0.00 | 55 | 1005.1 |
| 20260504223521 | 21 | 173 | 9.7 | 16.1 | 0.00 | 0.00 | 0.00 | 55 | 1005.0 |
| 20260504222621 | 21 | 142 | 11.3 | 11.3 | 0.00 | 0.00 | 0.00 | 54 | 1005.3 |
| 20260504221721 | 21 | 169 | 8.0 | 11.3 | 0.00 | 0.00 | 0.00 | 57 | 1005.4 |
| 20260504220822 | 20 | 186 | 4.8 | 8.0 | 0.00 | 0.00 | 0.00 | 59 | 1005.4 |
| 20260504215920 | 20 | 206 | 9.7 | 12.9 | 0.00 | 0.00 | 0.00 | 60 | 1005.5 |
| 20260504215022 | 20 | 194 | 11.3 | 14.5 | 0.00 | 0.00 | 0.00 | 60 | 1005.5 |
| 20260504214120 | 20 | 157 | 8.0 | 14.5 | 0.00 | 0.00 | 0.00 | 62 | 1005.4 |
| 20260504213221 | 20 | 193 | 11.3 | 16.1 | 0.00 | 0.00 | 0.00 | 63 | 1005.8 |
| 20260504212321 | 19 | 153 | 11.3 | 19.3 | 0.00 | 0.00 | 0.00 | 64 | 1005.7 |
| 20260504211421 | 18 | 146 | 9.7 | 12.9 | 0.00 | 0.00 | 0.00 | 67 | 1005.8 |
| 20260504210521 | 18 | 162 | 4.8 | 8.0 | 0.00 | 0.00 | 0.00 | 67 | 1005.9 |
| 20260504205621 | 18 | 163 | 8.0 | 9.7 | 0.00 | 0.00 | 0.00 | 66 | 1005.9 |
| 20260504204721 | 19 | 217 | 11.3 | 14.5 | 0.00 | 0.00 | 0.00 | 62 | 1006.5 |
| 20260504203822 | 20 | 219 | 9.7 | 14.5 | 0.00 | 0.00 | 0.00 | 59 | 1006.4 |
| 20260504202920 | 19 | 247 | 11.3 | 20.9 | 0.00 | 0.00 | 0.00 | 59 | 1005.8 |
| 20260504202020 | 20 | 272 | 14.5 | 32.2 | 0.00 | 0.00 | 0.00 | 58 | 1006.4 |
| 20260504201122 | 21 | 283 | 11.3 | 22.5 | 0.00 | 0.00 | 0.00 | 56 | 1006.4 |
| 20260504200220 | 20 | 260 | 8.0 | 12.9 | 0.00 | 0.00 | 0.00 | 55 | 1006.3 |
| 20260504195320 | 20 | 256 | 12.9 | 14.5 | 0.00 | 0.00 | 0.00 | 55 | 1006.8 |
| 20260504194422 | 20 | 271 | 11.3 | 22.5 | 0.00 | 0.00 | 0.00 | 58 | 1007.3 |
| 20260504193521 | 20 | 254 | 14.5 | 32.2 | 0.00 | 0.00 | 0.00 | 60 | 1007.4 |
| 20260504192621 | 20 | 252 | 12.9 | 12.9 | 0.00 | 0.00 | 0.00 | 60 | 1007.4 |
| 20260504191722 | 20 | 228 | 14.5 | 20.9 | 0.00 | 0.00 | 0.00 | 61 | 1007.4 |
| 20260504190820 | 20 | 202 | 14.5 | 25.7 | 0.00 | 0.00 | 0.00 | 60 | 1007.6 |
| 20260504185920 | 20 | 195 | 12.9 | 32.2 | 0.00 | 0.00 | 0.00 | 60 | 1007.6 |
| 20260504185020 | 20 | 214 | 14.5 | 25.7 | 0.00 | 0.00 | 0.00 | 59 | 1007.4 |
| 20260504184217 | 20 | 222 | 12.9 | 16.1 | 0.00 | 0.00 | 0.00 | 60 | 1007.2 |
| 20260504182321 | 20 | 193 | 16.1 | 24.1 | 0.00 | 0.00 | 0.00 | 61 | 1007.5 |
| 20260504181420 | 20 | 180 | 19.3 | 33.8 | 0.00 | 0.00 | 0.00 | 61 | 1007.3 |
| 20260504180521 | 20 | 212 | 9.7 | 12.9 | 0.00 | 0.00 | 0.00 | 62 | 1007.6 |
| 20260504175619 | 20 | 221 | 12.9 | 19.3 | 0.00 | 0.00 | 0.00 | 61 | 1007.6 |
| 20260504174721 | 20 | 211 | 14.5 | 32.2 | 0.00 | 0.00 | 0.00 | 60 | 1007.7 |
| 20260504173820 | 20 | 242 | 14.5 | 25.7 | 0.00 | 0.00 | 0.00 | 60 | 1007.5 |
| 20260504172920 | 21 | 209 | 19.3 | 32.2 | 0.00 | 0.00 | 0.00 | 59 | 1007.4 |
| 20260504172021 | 21 | 259 | 12.9 | 22.5 | 0.00 | 0.00 | 0.00 | 61 | 1007.4 |
| 20260504171120 | 20 | 218 | 16.1 | 25.7 | 0.00 | 0.00 | 0.00 | 59 | 1007.2 |
| 20260504170223 | 21 | 207 | 14.5 | 20.9 | 0.00 | 0.00 | 0.00 | 59 | 1007.6 |
| 20260504150521 | 18 | 258 | 8.0 | 14.5 | 0.00 | 0.00 | 0.00 | 66 | 1008.2 |
| 20260504141121 | 16 | 215 | 4.8 | 11.3 | 0.00 | 0.00 | 0.00 | 70 | 1008.6 |
| 20260504140220 | 16 | 212 | 8.0 | 8.0 | 0.00 | 0.00 | 0.00 | 69 | 1008.8 |